Location: ???????
(55.3754°N, 39.3545°E)
Time: 19:57:09
(UTC+00:00)

Cosmos 1536 Rocket - Pass Details

Date: 14 April 2026
Orbit: 598 x 625 km, 82.5° (Epoch: 19 May)

Event Time Altitude Azimuth Distance (km) Brightness Sun altitude
Rises 19:38:42 0° 352° (N) 2,867 8.2 -21.4°
Reaches altitude 10° 19:41:06 10° 2° (N) 1,956 7.0 -21.6°
Maximum altitude 19:45:03 34° 68° (ENE) 1,003 4.5 -21.9°
Enters shadow 19:45:26 33° 80° (E) 1,016 4.5 -21.9°
